QPF
0.03 0.02 0.03 0.03 0.02 0.02 0.01 0.01 0.01 0.03 0.04 0.02 0.01 0.01 0.02 0.01 0.01 0.01 0.01 0.02 0.02 0.02 0.03 0.04 0.04 0.02 0.03 0.02 0.02 0.03 0.02 0.02 0.02 0.01 0.01 0.01 0.01 0.01 0.01 0.02 0.01 0.01 0.01
0.03 0.03 0.03 0.03 0.02 0.02 0.01 0.01 0.01 0.04 0.05 0.04 0.02 0.01 0.02 0.01 0.01 0.01 0.02 0.03 0.04 0.02 0.02 0.03 0.04 0.03 0.03 0.02 0.02 0.03 0.02 0.03 0.02 0.01 0.01 0.00 0.00 0.01 0.01 0.02 0.01 0.01 0.01
0.04 0.04 0.03 0.04 0.04 0.03 0.03 0.03 0.05 0.05 0.05 0.05 0.06 0.04 0.04 0.03 0.02 0.02 0.01 0.02 0.04 0.03 0.02 0.02 0.02 0.03 0.04 0.03 0.02 0.02 0.03 0.02 0.02 0.01 0.00 0.00 0.01 0.01 0.01 0.01 0.01 0.01 0.01
0.04 0.05 0.05 0.05 0.05 0.04 0.05 0.07 0.07 0.08 0.09 0.09 0.09 0.08 0.06 0.05 0.03 0.02 0.02 0.02 0.02 0.03 0.03 0.02 0.02 0.02 0.02 0.03 0.04 0.06 0.04 0.02 0.02 0.01 0.01 0.01 0.00 0.01 0.01 0.01 0.01 0.01 0.00
0.03 0.04 0.07 0.08 0.06 0.06 0.07 0.05 0.06 0.07 0.09 0.10 0.07 0.07 0.05 0.04 0.04 0.03 0.02 0.02 0.02 0.02 0.03 0.02 0.02 0.01 0.01 0.02 0.03 0.05 0.06 0.05 0.03 0.01 0.01 0.02 0.01 0.01 0.01 0.01 0.01 0.01 0.00
0.04 0.05 0.05 0.07 0.07 0.07 0.08 0.08 0.09 0.08 0.07 0.07 0.03 0.05 0.04 0.03 0.03 0.03 0.03 0.02 0.01 0.01 0.01 0.01 0.02 0.01 0.01 0.02 0.04 0.04 0.06 0.05 0.04 0.03 0.03 0.03 0.02 0.02 0.01 0.01 0.01 0.01 0.01
0.07 0.07 0.05 0.06 0.07 0.07 0.08 0.08 0.08 0.08 0.07 0.06 0.06 0.06 0.05 0.04 0.05 0.05 0.05 0.04 0.02 0.02 0.01 0.02 0.02 0.02 0.03 0.02 0.02 0.02 0.04 0.06 0.06 0.05 0.04 0.04 0.04 0.03 0.02 0.01 0.01 0.01 0.01
0.08 0.08 0.08 0.06 0.06 0.08 0.08 0.07 0.09 0.09 0.07 0.06 0.07 0.08 0.07 0.06 0.05 0.02 0.03 0.03 0.03 0.03 0.02 0.01 0.03 0.04 0.04 0.04 0.03 0.02 0.03 0.05 0.07 0.07 0.05 0.04 0.03 0.02 0.02 0.01 0.01 0.00 0.00
0.09 0.10 0.10 0.08 0.08 0.07 0.06 0.08 0.09 0.10 0.09 0.08 0.06 0.07 0.07 0.06 0.05 0.02 0.01 0.01 0.04 0.05 0.05 0.03 0.02 0.03 0.04 0.05 0.04 0.02 0.02 0.02 0.04 0.07 0.07 0.06 0.04 0.02 0.02 0.02 0.01 0.01 0.01
0.08 0.10 0.11 0.09 0.09 0.07 0.07 0.06 0.06 0.09 0.10 0.08 0.06 0.06 0.05 0.05 0.05 0.04 0.02 0.01 0.01 0.03 0.03 0.02 0.01 0.02 0.02 0.03 0.04 0.03 0.01 0.01 0.02 0.04 0.05 0.05 0.04 0.03 0.02 0.02 0.03 0.03 0.03
0.07 0.08 0.09 0.10 0.09 0.07 0.07 0.07 0.08 0.08 0.08 0.08 0.07 0.07 0.07 0.06 0.04 0.05 0.06 0.05 0.02 0.01 0.01 0.02 0.02 0.01 0.01 0.02 0.03 0.02 0.01 0.01 0.01 0.01 0.02 0.03 0.04 0.04 0.03 0.03 0.03 0.04 0.04
0.06 0.09 0.09 0.10 0.09 0.07 0.08 0.08 0.08 0.08 0.09 0.09 0.08 0.07 0.07 0.06 0.04 0.04 0.05 0.06 0.04 0.02 0.01 0.01 0.01 0.01 0.01 0.02 0.01 0.01 0.01 0.01 0.01 0.01 0.01 0.02 0.03 0.04 0.04 0.05 0.05 0.05 0.05
0.05 0.07 0.08 0.10 0.10 0.09 0.10 0.10 0.08 0.08 0.08 0.09 0.08 0.07 0.05 0.04 0.04 0.04 0.05 0.06 0.05 0.02 0.02 0.01 0.00 0.00 0.01 0.03 0.02 0.01 0.01 0.01 0.01 0.01 0.01 0.01 0.01 0.01 0.02 0.03 0.04 0.04 0.04
0.07 0.08 0.09 0.09 0.09 0.09 0.08 0.09 0.08 0.08 0.08 0.08 0.05 0.07 0.06 0.05 0.04 0.05 0.05 0.06 0.06 0.05 0.03 0.01 0.00 0.01 0.02 0.02 0.02 0.02 0.01 0.02 0.02 0.01 0.01 0.01 0.01 0.01 0.02 0.02 0.02 0.02 0.02
0.07 0.07 0.07 0.09 0.11 0.11 0.10 0.09 0.08 0.07 0.07 0.06 0.06 0.06 0.05 0.05 0.04 0.04 0.04 0.05 0.06 0.06 0.04 0.02 0.01 0.02 0.02 0.02 0.02 0.02 0.03 0.04 0.03 0.03 0.03 0.02 0.02 0.02 0.02 0.02 0.03 0.02 0.02
0.06 0.05 0.06 0.06 0.09 0.11 0.12 0.11 0.09 0.07 0.07 0.06 0.06 0.06 0.06 0.05 0.05 0.05 0.06 0.05 0.05 0.05 0.05 0.03 0.02 0.01 0.02 0.02 0.02 0.03 0.03 0.04 0.03 0.03 0.03 0.04 0.04 0.04 0.04 0.04 0.03 0.03 0.03
0.05 0.05 0.05 0.06 0.07 0.08 0.09 0.09 0.08 0.08 0.08 0.08 0.07 0.07 0.08 0.09 0.09 0.09 0.08 0.08 0.08 0.07 0.06 0.04 0.03 0.02 0.02 0.03 0.03 0.02 0.02 0.02 0.03 0.04 0.03 0.03 0.03 0.02 0.02 0.02 0.02 0.03 0.03
0.04 0.04 0.05 0.05 0.05 0.06 0.06 0.06 0.06 0.05 0.06 0.07 0.08 0.09 0.09 0.09 0.10 0.10 0.11 0.10 0.10 0.10 0.09 0.07 0.05 0.05 0.05 0.04 0.04 0.04 0.04 0.05 0.04 0.04 0.03 0.02 0.02 0.02 0.02 0.03 0.03 0.03 0.03
0.05 0.04 0.04 0.04 0.04 0.05 0.06 0.06 0.06 0.06 0.06 0.06 0.07 0.08 0.08 0.09 0.09 0.11 0.11 0.12 0.13 0.14 0.15 0.13 0.11 0.10 0.08 0.09 0.10 0.10 0.09 0.07 0.03 0.02 0.02 0.02 0.03 0.03 0.03 0.03 0.04 0.04 0.04
0.04 0.05 0.05 0.05 0.06 0.06 0.07 0.07 0.07 0.08 0.08 0.08 0.08 0.09 0.10 0.10 0.11 0.14 0.15 0.15 0.17 0.17 0.16 0.15 0.13 0.11 0.10 0.10 0.12 0.11 0.09 0.07 0.06 0.04 0.04 0.04 0.04 0.04 0.04 0.04 0.04 0.04 0.05
0.03 0.04 0.04 0.05 0.06 0.06 0.07 0.10 0.10 0.09 0.10 0.10 0.10 0.11 0.12 0.14 0.16 0.17 0.16 0.18 0.18 0.16 0.14 0.12 0.11 0.10 0.09 0.09 0.09 0.09 0.10 0.10 0.09 0.06 0.06 0.06 0.06 0.06 0.07 0.07 0.06 0.06 0.06
0.02 0.02 0.02 0.03 0.04 0.05 0.08 0.11 0.14 0.16 0.17 0.17 0.17 0.16 0.15 0.15 0.14 0.14 0.13 0.13 0.13 0.13 0.12 0.11 0.10 0.09 0.08 0.09 0.10 0.10 0.11 0.10 0.09 0.07 0.07 0.09 0.08 0.09 0.09 0.09 0.10 0.09 0.08
0.02 0.02 0.02 0.03 0.03 0.05 0.07 0.10 0.13 0.13 0.14 0.15 0.15 0.15 0.11 0.09 0.08 0.07 0.09 0.10 0.09 0.09 0.09 0.08 0.08 0.08 0.07 0.07 0.09 0.10 0.09 0.09 0.09 0.08 0.08 0.09 0.09 0.08 0.08 0.09 0.11 0.12 0.11
0.03 0.03 0.03 0.03 0.03 0.05 0.08 0.10 0.10 0.09 0.08 0.09 0.12 0.12 0.11 0.10 0.08 0.07 0.07 0.06 0.06 0.06 0.06 0.06 0.06 0.06 0.07 0.07 0.09 0.10 0.11 0.11 0.11 0.10 0.09 0.10 0.09 0.09 0.09 0.10 0.12 0.12 0.11
0.04 0.05 0.05 0.05 0.05 0.06 0.07 0.08 0.08 0.09 0.10 0.11 0.11 0.10 0.09 0.07 0.08 0.08 0.06 0.05 0.05 0.05 0.06 0.07 0.08 0.09 0.10 0.10 0.10 0.11 0.12 0.13 0.13 0.12 0.10 0.09 0.09 0.09 0.08 0.08 0.08 0.09 0.08
0.05 0.06 0.06 0.07 0.06 0.05 0.07 0.08 0.06 0.05 0.06 0.07 0.06 0.05 0.06 0.06 0.07 0.06 0.05 0.05 0.06 0.06 0.06 0.06 0.08 0.10 0.11 0.12 0.13 0.12 0.13 0.14 0.15 0.14 0.12 0.11 0.10 0.09 0.09 0.08 0.06 0.05 0.04
MSLP
1018.48 1018.44 1018.38 1018.32 1018.31 1018.37 1018.51 1018.72 1018.95 1019.18 1019.36 1019.48 1019.55 1019.57 1019.59 1019.67 1019.83 1020.10 1020.46 1020.88 1021.32 1021.73 1022.06 1022.30 1022.44 1022.51 1022.55 1022.58 1022.64 1022.73 1022.86 1023.01 1023.16 1023.28 1023.37 1023.44 1023.49 1023.54 1023.61 1023.70 1023.81 1023.92 1024.03
1018.71 1018.63 1018.51 1018.41 1018.36 1018.38 1018.51 1018.71 1018.97 1019.23 1019.47 1019.64 1019.75 1019.80 1019.84 1019.90 1020.01 1020.21 1020.50 1020.85 1021.23 1021.60 1021.93 1022.19 1022.38 1022.51 1022.61 1022.69 1022.78 1022.89 1023.02 1023.14 1023.26 1023.36 1023.43 1023.48 1023.52 1023.57 1023.63 1023.71 1023.81 1023.92 1024.02
1018.97 1018.86 1018.71 1018.57 1018.49 1018.49 1018.60 1018.80 1019.06 1019.35 1019.62 1019.82 1019.96 1020.03 1020.06 1020.08 1020.13 1020.25 1020.44 1020.70 1021.01 1021.33 1021.65 1021.93 1022.17 1022.37 1022.53 1022.68 1022.82 1022.95 1023.09 1023.21 1023.32 1023.41 1023.47 1023.51 1023.55 1023.59 1023.64 1023.72 1023.81 1023.91 1024.00
1019.23 1019.11 1018.94 1018.79 1018.68 1018.67 1018.75 1018.94 1019.20 1019.49 1019.76 1019.99 1020.14 1020.21 1020.22 1020.20 1020.19 1020.22 1020.32 1020.49 1020.72 1020.99 1021.28 1021.57 1021.85 1022.10 1022.33 1022.54 1022.73 1022.91 1023.07 1023.21 1023.32 1023.41 1023.47 1023.51 1023.55 1023.60 1023.65 1023.72 1023.80 1023.88 1023.96
1019.43 1019.32 1019.17 1019.01 1018.90 1018.86 1018.93 1019.09 1019.32 1019.60 1019.86 1020.08 1020.24 1020.30 1020.30 1020.26 1020.20 1020.16 1020.18 1020.26 1020.41 1020.62 1020.88 1021.17 1021.46 1021.75 1022.03 1022.29 1022.54 1022.75 1022.95 1023.11 1023.24 1023.34 1023.41 1023.47 1023.52 1023.57 1023.62 1023.69 1023.75 1023.82 1023.88
1019.53 1019.45 1019.32 1019.18 1019.07 1019.03 1019.07 1019.19 1019.39 1019.64 1019.88 1020.09 1020.24 1020.32 1020.31 1020.26 1020.17 1020.10 1020.06 1020.07 1020.16 1020.31 1020.52 1020.77 1021.06 1021.36 1021.67 1021.96 1022.24 1022.50 1022.72 1022.91 1023.06 1023.18 1023.27 1023.34 1023.40 1023.46 1023.52 1023.58 1023.64 1023.69 1023.74
1019.52 1019.48 1019.39 1019.28 1019.18 1019.12 1019.14 1019.23 1019.39 1019.59 1019.81 1020.01 1020.17 1020.25 1020.27 1020.23 1020.16 1020.07 1020.00 1019.96 1019.99 1020.07 1020.22 1020.43 1020.68 1020.96 1021.26 1021.57 1021.87 1022.15 1022.39 1022.61 1022.78 1022.92 1023.03 1023.11 1023.18 1023.24 1023.30 1023.36 1023.41 1023.46 1023.49
1019.39 1019.40 1019.35 1019.27 1019.19 1019.13 1019.13 1019.19 1019.31 1019.48 1019.67 1019.87 1020.03 1020.15 1020.21 1020.21 1020.16 1020.09 1020.01 1019.94 1019.91 1019.93 1020.01 1020.14 1020.33 1020.57 1020.84 1021.13 1021.43 1021.71 1021.97 1022.20 1022.39 1022.54 1022.66 1022.75 1022.82 1022.88 1022.94 1022.99 1023.05 1023.10 1023.13
1019.18 1019.23 1019.23 1019.18 1019.12 1019.07 1019.05 1019.09 1019.17 1019.31 1019.49 1019.69 1019.87 1020.03 1020.14 1020.20 1020.20 1020.16 1020.09 1020.00 1019.92 1019.88 1019.87 1019.92 1020.03 1020.20 1020.42 1020.68 1020.95 1021.23 1021.49 1021.72 1021.91 1022.06 1022.18 1022.26 1022.33 1022.38 1022.43 1022.49 1022.54 1022.60 1022.65
1018.91 1019.00 1019.03 1019.03 1018.99 1018.96 1018.94 1018.96 1019.03 1019.14 1019.31 1019.51 1019.72 1019.92 1020.08 1020.20 1020.26 1020.25 1020.19 1020.09 1019.97 1019.86 1019.78 1019.74 1019.77 1019.86 1020.02 1020.23 1020.47 1020.73 1020.98 1021.21 1021.39 1021.53 1021.63 1021.70 1021.75 1021.79 1021.83 1021.88 1021.94 1022.02 1022.10
1018.63 1018.75 1018.81 1018.84 1018.84 1018.82 1018.81 1018.83 1018.89 1018.99 1019.15 1019.35 1019.58 1019.82 1020.03 1020.20 1020.30 1020.33 1020.28 1020.17 1020.02 1019.85 1019.70 1019.59 1019.54 1019.57 1019.67 1019.84 1020.05 1020.29 1020.53 1020.74 1020.91 1021.03 1021.11 1021.15 1021.17 1021.19 1021.22 1021.26 1021.34 1021.44 1021.55
1018.35 1018.48 1018.58 1018.64 1018.67 1018.69 1018.70 1018.72 1018.78 1018.88 1019.03 1019.24 1019.48 1019.73 1019.97 1020.17 1020.30 1020.35 1020.32 1020.20 1020.03 1019.82 1019.62 1019.46 1019.37 1019.35 1019.42 1019.56 1019.76 1019.98 1020.21 1020.40 1020.56 1020.66 1020.71 1020.72 1020.71 1020.70 1020.72 1020.76 1020.84 1020.96 1021.11
1018.07 1018.22 1018.35 1018.44 1018.51 1018.56 1018.59 1018.63 1018.70 1018.80 1018.95 1019.15 1019.39 1019.65 1019.90 1020.11 1020.26 1020.32 1020.28 1020.17 1019.99 1019.77 1019.56 1019.38 1019.27 1019.25 1019.31 1019.45 1019.65 1019.87 1020.09 1020.28 1020.42 1020.50 1020.52 1020.51 1020.47 1020.45 1020.44 1020.48 1020.57 1020.71 1020.88
1017.81 1017.98 1018.12 1018.25 1018.36 1018.44 1018.51 1018.58 1018.66 1018.77 1018.92 1019.11 1019.34 1019.58 1019.82 1020.02 1020.17 1020.23 1020.20 1020.09 1019.92 1019.72 1019.53 1019.37 1019.29 1019.30 1019.39 1019.56 1019.78 1020.02 1020.25 1020.44 1020.57 1020.63 1020.63 1020.60 1020.54 1020.50 1020.49 1020.52 1020.61 1020.76 1020.94
1017.57 1017.75 1017.92 1018.08 1018.23 1018.36 1018.46 1018.56 1018.67 1018.79 1018.94 1019.12 1019.33 1019.55 1019.77 1019.95 1020.08 1020.13 1020.11 1020.02 1019.88 1019.72 1019.58 1019.49 1019.47 1019.54 1019.69 1019.91 1020.18 1020.45 1020.70 1020.89 1021.02 1021.07 1021.06 1021.01 1020.95 1020.89 1020.88 1020.92 1021.01 1021.15 1021.33
1017.37 1017.56 1017.76 1017.96 1018.14 1018.32 1018.47 1018.61 1018.75 1018.89 1019.05 1019.22 1019.41 1019.61 1019.79 1019.95 1020.05 1020.10 1020.08 1020.01 1019.92 1019.82 1019.75 1019.74 1019.81 1019.97 1020.20 1020.49 1020.81 1021.12 1021.39 1021.59 1021.72 1021.77 1021.76 1021.71 1021.64 1021.59 1021.58 1021.62 1021.72 1021.85 1022.02
1017.24 1017.45 1017.68 1017.91 1018.14 1018.36 1018.56 1018.75 1018.92 1019.10 1019.27 1019.45 1019.62 1019.80 1019.95 1020.08 1020.16 1020.20 1020.19 1020.15 1020.10 1020.06 1020.08 1020.16 1020.32 1020.57 1020.89 1021.25 1021.61 1021.96 1022.25 1022.46 1022.59 1022.64 1022.62 1022.57 1022.52 1022.48 1022.49 1022.53 1022.63 1022.76 1022.90
1017.22 1017.46 1017.71 1017.98 1018.25 1018.52 1018.77 1019.01 1019.23 1019.43 1019.63 1019.82 1020.00 1020.16 1020.30 1020.40 1020.46 1020.48 1020.47 1020.45 1020.44 1020.47 1020.55 1020.71 1020.96 1021.29 1021.67 1022.08 1022.48 1022.85 1023.14 1023.36 1023.48 1023.52 1023.50 1023.46 1023.42 1023.40 1023.42 1023.48 1023.59 1023.71 1023.84
1017.34 1017.61 1017.90 1018.20 1018.51 1018.82 1019.11 1019.39 1019.66 1019.91 1020.14 1020.36 1020.55 1020.71 1020.83 1020.91 1020.96 1020.96 1020.95 1020.94 1020.95 1021.01 1021.14 1021.36 1021.66 1022.04 1022.46 1022.89 1023.31 1023.67 1023.96 1024.15 1024.25 1024.28 1024.25 1024.21 1024.18 1024.18 1024.22 1024.31 1024.42 1024.55 1024.66
1017.63 1017.93 1018.25 1018.58 1018.92 1019.26 1019.59 1019.91 1020.22 1020.51 1020.78 1021.02 1021.24 1021.41 1021.53 1021.60 1021.63 1021.62 1021.59 1021.57 1021.59 1021.66 1021.80 1022.04 1022.36 1022.74 1023.17 1023.60 1023.99 1024.33 1024.58 1024.73 1024.80 1024.80 1024.76 1024.72 1024.69 1024.70 1024.77 1024.87 1025.01 1025.14 1025.26
1018.07 1018.41 1018.76 1019.11 1019.46 1019.82 1020.17 1020.52 1020.86 1021.18 1021.49 1021.77 1022.01 1022.20 1022.33 1022.40 1022.42 1022.39 1022.34 1022.30 1022.29 1022.34 1022.47 1022.69 1022.98 1023.34 1023.74 1024.12 1024.48 1024.76 1024.95 1025.06 1025.08 1025.05 1024.98 1024.92 1024.89 1024.91 1024.99 1025.11 1025.26 1025.41 1025.54
1018.63 1019.01 1019.38 1019.74 1020.10 1020.45 1020.81 1021.16 1021.52 1021.87 1022.20 1022.51 1022.78 1022.99 1023.14 1023.22 1023.23 1023.18 1023.11 1023.04 1022.99 1023.00 1023.08 1023.25 1023.50 1023.80 1024.13 1024.46 1024.74 1024.96 1025.09 1025.14 1025.11 1025.03 1024.93 1024.85 1024.81 1024.82 1024.90 1025.03 1025.20 1025.36 1025.50
1019.27 1019.68 1020.06 1020.42 1020.77 1021.11 1021.45 1021.79 1022.14 1022.49 1022.84 1023.17 1023.47 1023.70 1023.87 1023.96 1023.97 1023.92 1023.82 1023.71 1023.62 1023.58 1023.60 1023.70 1023.88 1024.11 1024.36 1024.61 1024.82 1024.97 1025.04 1025.03 1024.95 1024.83 1024.70 1024.59 1024.53 1024.53 1024.60 1024.72 1024.89 1025.06 1025.21
1019.93 1020.36 1020.75 1021.11 1021.43 1021.74 1022.04 1022.35 1022.67 1023.01 1023.36 1023.70 1024.01 1024.27 1024.45 1024.56 1024.57 1024.51 1024.40 1024.26 1024.13 1024.04 1024.00 1024.04 1024.14 1024.29 1024.47 1024.65 1024.79 1024.87 1024.89 1024.83 1024.71 1024.55 1024.39 1024.26 1024.17 1024.15 1024.20 1024.31 1024.46 1024.62 1024.77
1020.57 1021.02 1021.41 1021.75 1022.04 1022.30 1022.55 1022.82 1023.11 1023.42 1023.75 1024.08 1024.39 1024.65 1024.85 1024.97 1025.00 1024.94 1024.83 1024.67 1024.51 1024.38 1024.29 1024.27 1024.31 1024.40 1024.51 1024.63 1024.72 1024.75 1024.73 1024.64 1024.50 1024.32 1024.14 1023.99 1023.88 1023.83 1023.85 1023.92 1024.04 1024.17 1024.30
1021.16 1021.62 1022.01 1022.33 1022.58 1022.80 1023.01 1023.22 1023.45 1023.72 1024.01 1024.32 1024.62 1024.89 1025.09 1025.22 1025.26 1025.21 1025.10 1024.95 1024.78 1024.62 1024.50 1024.44 1024.43 1024.48 1024.55 1024.62 1024.67 1024.68 1024.64 1024.54 1024.39 1024.21 1024.02 1023.85 1023.72 1023.65 1023.63 1023.66 1023.73 1023.82 1023.90
Thickness
5742 5741 5739 5739 5741 5741 5740 5738 5738 5736 5736 5736 5736 5736 5735 5735 5734 5733 5727 5722 5720 5719 5718 5717 5716 5715 5714 5712 5711 5710 5710 5709 5708 5707 5706 5705 5704 5704 5703 5702 5701 5701 5700
5741 5740 5739 5739 5740 5740 5740 5739 5738 5736 5737 5737 5736 5735 5734 5734 5731 5729 5729 5724 5720 5719 5718 5717 5715 5714 5713 5712 5711 5710 5709 5708 5707 5706 5705 5704 5703 5703 5702 5701 5700 5700 5699
5740 5740 5741 5740 5740 5739 5737 5737 5736 5736 5736 5736 5736 5735 5734 5732 5731 5729 5729 5727 5724 5720 5718 5717 5716 5714 5713 5712 5711 5709 5708 5707 5706 5705 5704 5704 5703 5702 5701 5700 5700 5699 5698
5739 5739 5741 5741 5739 5739 5738 5737 5737 5736 5736 5736 5735 5735 5734 5732 5731 5730 5729 5728 5727 5726 5720 5718 5716 5715 5713 5712 5711 5710 5709 5708 5706 5705 5704 5703 5702 5702 5701 5700 5699 5698 5697
5739 5739 5740 5739 5738 5738 5738 5739 5739 5738 5735 5735 5736 5735 5735 5734 5732 5732 5731 5730 5728 5726 5725 5719 5718 5716 5714 5713 5712 5711 5710 5708 5707 5706 5705 5703 5702 5702 5701 5700 5699 5698 5697
5739 5739 5739 5738 5739 5739 5738 5738 5737 5736 5736 5735 5739 5738 5737 5737 5736 5735 5733 5732 5730 5729 5728 5726 5722 5719 5717 5715 5713 5712 5711 5710 5708 5707 5706 5705 5703 5702 5701 5700 5699 5698 5697
5739 5738 5740 5738 5738 5739 5738 5739 5738 5736 5735 5736 5735 5734 5737 5739 5738 5736 5735 5734 5733 5731 5729 5727 5725 5724 5721 5717 5715 5714 5712 5711 5710 5708 5707 5706 5704 5703 5702 5700 5699 5698 5697
5739 5740 5739 5739 5739 5738 5738 5738 5736 5736 5737 5737 5734 5731 5729 5732 5735 5740 5738 5735 5735 5733 5731 5729 5727 5724 5723 5723 5720 5716 5714 5712 5711 5710 5708 5707 5706 5704 5703 5701 5700 5699 5698
5740 5740 5740 5740 5740 5740 5739 5737 5737 5735 5734 5737 5738 5734 5729 5728 5733 5739 5739 5738 5736 5734 5733 5732 5729 5727 5725 5724 5723 5719 5717 5715 5713 5711 5710 5708 5707 5705 5704 5702 5701 5699 5698
5741 5741 5740 5740 5739 5741 5739 5739 5740 5738 5735 5735 5736 5736 5736 5735 5729 5731 5737 5739 5737 5735 5735 5734 5733 5731 5727 5726 5724 5721 5718 5716 5714 5713 5711 5710 5708 5706 5705 5703 5701 5700 5699
5742 5742 5741 5740 5740 5740 5740 5739 5739 5738 5738 5736 5736 5736 5735 5734 5733 5729 5727 5733 5736 5738 5737 5735 5734 5733 5730 5728 5726 5724 5720 5718 5716 5714 5713 5711 5709 5708 5706 5704 5702 5701 5699
5742 5742 5741 5740 5740 5740 5739 5738 5737 5737 5737 5736 5736 5736 5734 5733 5732 5732 5728 5729 5731 5737 5738 5737 5735 5734 5732 5730 5728 5725 5721 5719 5717 5715 5713 5711 5710 5708 5706 5705 5703 5701 5700
5743 5741 5741 5740 5740 5740 5739 5738 5737 5736 5736 5734 5734 5735 5736 5735 5736 5734 5730 5729 5730 5734 5735 5736 5736 5734 5732 5730 5728 5724 5721 5719 5717 5715 5713 5711 5709 5707 5706 5704 5703 5701 5699
5744 5742 5741 5740 5739 5739 5738 5737 5737 5736 5735 5734 5734 5733 5733 5735 5735 5733 5730 5727 5725 5728 5731 5732 5735 5733 5730 5728 5726 5722 5721 5718 5716 5714 5711 5709 5707 5706 5704 5703 5701 5699 5698
5744 5742 5741 5740 5739 5737 5736 5735 5735 5734 5733 5733 5733 5733 5732 5733 5733 5732 5731 5728 5722 5718 5721 5727 5728 5729 5725 5723 5721 5720 5718 5716 5713 5711 5709 5707 5705 5703 5701 5700 5698 5696 5694
5742 5741 5740 5738 5737 5736 5734 5733 5733 5732 5731 5730 5730 5729 5729 5731 5730 5729 5728 5726 5724 5719 5717 5722 5722 5723 5720 5720 5716 5714 5712 5710 5707 5706 5704 5702 5701 5699 5697 5695 5693 5691 5689
5740 5738 5737 5736 5735 5734 5733 5731 5731 5730 5728 5728 5727 5727 5725 5725 5725 5724 5724 5722 5720 5717 5713 5717 5719 5717 5713 5711 5710 5708 5707 5704 5703 5700 5698 5696 5694 5692 5691 5689 5687 5685 5683
5738 5737 5735 5734 5733 5732 5731 5729 5728 5728 5726 5724 5723 5722 5721 5721 5720 5719 5718 5717 5716 5714 5710 5708 5711 5710 5707 5705 5703 5701 5700 5699 5696 5692 5690 5688 5686 5684 5682 5681 5679 5677 5675
5736 5735 5733 5731 5730 5729 5728 5727 5725 5724 5722 5721 5720 5718 5716 5715 5713 5713 5712 5712 5711 5710 5707 5704 5703 5702 5701 5699 5696 5693 5692 5689 5688 5685 5682 5679 5676 5674 5672 5671 5669 5668 5666
5733 5731 5730 5728 5727 5726 5725 5723 5722 5719 5718 5716 5715 5713 5711 5709 5708 5707 5706 5704 5703 5702 5700 5697 5695 5694 5691 5690 5687 5685 5683 5681 5679 5677 5673 5670 5666 5664 5662 5660 5658 5656 5655
5729 5727 5726 5724 5723 5722 5720 5718 5716 5715 5712 5710 5708 5706 5704 5701 5699 5699 5698 5697 5695 5693 5691 5688 5686 5684 5682 5679 5677 5676 5674 5671 5668 5667 5664 5660 5658 5655 5651 5648 5646 5643 5642
5724 5723 5720 5718 5717 5715 5712 5710 5708 5707 5705 5702 5700 5698 5696 5694 5691 5689 5687 5685 5683 5683 5681 5679 5677 5673 5671 5670 5668 5667 5664 5661 5657 5656 5653 5649 5647 5643 5640 5637 5633 5631 5629
5719 5716 5714 5712 5709 5706 5703 5702 5700 5699 5697 5694 5691 5690 5689 5687 5685 5683 5679 5676 5673 5671 5669 5668 5666 5663 5661 5660 5658 5656 5653 5650 5646 5644 5642 5637 5634 5631 5627 5623 5620 5618 5615
5712 5709 5707 5704 5701 5697 5695 5693 5692 5690 5688 5685 5683 5681 5679 5677 5676 5674 5672 5668 5664 5660 5659 5657 5654 5651 5649 5648 5647 5646 5643 5639 5636 5632 5630 5626 5622 5619 5616 5611 5606 5604 5601
5704 5702 5700 5697 5693 5689 5686 5685 5684 5682 5679 5676 5673 5671 5670 5667 5664 5663 5661 5658 5654 5649 5645 5642 5639 5637 5636 5635 5635 5635 5632 5630 5626 5621 5616 5614 5610 5607 5604 5600 5595 5591 5589
5697 5694 5691 5688 5685 5681 5676 5676 5675 5674 5671 5668 5664 5661 5657 5655 5653 5652 5651 5648 5643 5638 5636 5633 5629 5626 5625 5623 5621 5619 5619 5616 5613 5608 5602 5600 5598 5596 5592 5588 5584 5581 5577